Location: Altleiningen
(49.5078°N, 8.0741°E)
Time: 03:37:51
(UTC+00:00)

Gbstr 26 Del rocket - Pass Details

Date: 03 March 2021
Orbit: 492 x 1264 km, 51.8° (Epoch: 11 April)

Event Time Altitude Azimuth Distance (km) Brightness Sun altitude
Rises 18:07:26 0° 262° (W) 2,745 8.5 -9.5°
Reaches altitude 10° 18:09:30 10° 264° (W) 1,924 7.2 -9.8°
Maximum altitude 18:13:52 74° 350° (N) 707 3.4 -10.5°
Enters shadow 18:18:33 14° 75° (ENE) 2,089 5.2 -11.3°
